This demonstration page uses our WeatherBlox Daily Observations layout. Learn more.

Left ArrowRight Arrow

39.29038, -76.61219

Hourly Observations for March 22, 2015

Temp ( °F °C ) Dew Point ( °F °C ) Humidity (%) Winds ( mph kmh ) Pressure ( in mb ) Visibility ( mi km ) Precip ( " mm )
12:54 am 00:54 undefined 50 10 37 2.8 61 61 undefined N/A 30.00 1016 N/A 0.00 0.00
1:54 am 01:54 undefined 49 9.4 35 1.7 59 59 undefined N/A 30.01 1016 N/A 0.00 0.00
2:54 am 02:54 undefined 48 8.9 34 1.1 58 58 undefined N/A 30.02 1017 N/A 0.00 0.00
3:54 am 03:54 undefined 46 7.8 29 -1.7 51 51 undefined N/A 30.04 1017 N/A 0.00 0.00
4:54 am 04:54 undefined 44 6.7 30 -1.1 58 58 undefined N/A 30.04 1017 N/A 0.00 0.00
5:54 am 05:54 undefined 43 6.1 27 -2.8 53 53 undefined N/A 30.05 1018 N/A 0.00 0.00
6:54 am 06:54 undefined 41 5 27 -2.8 57 57 undefined N/A 30.08 1019 N/A 0.00 0.00
7:54 am 07:54 undefined 41 5 27 -2.8 57 57 undefined N/A 30.09 1019 N/A 0.00 0.00
8:54 am 08:54 undefined 43 6.1 25 -3.9 49 49 undefined N/A 30.14 1021 N/A 0.00 0.00
9:54 am 09:54 undefined 43 6.1 24 -4.4 47 47 undefined N/A 30.15 1021 N/A 0.00 0.00
10:54 am 10:54 undefined 45 7.2 20 -6.7 37 37 undefined N/A 30.16 1021 N/A 0.00 0.00
11:54 am 11:54 undefined 45 7.2 13 -10.6 27 27 undefined N/A 30.14 1021 N/A 0.00 0.00
12:54 pm 12:54 undefined 47 8.3 15 -9.4 28 28 undefined N/A 30.14 1021 N/A 0.00 0.00
1:54 pm 13:54 undefined 49 9.4 11 -11.7 21 21 undefined N/A 30.12 1020 N/A 0.00 0.00
2:54 pm 14:54 undefined 49 9.4 11 -11.7 21 21 undefined N/A 30.09 1019 N/A 0.00 0.00
3:54 pm 15:54 undefined 50 10 9 -12.8 19 19 undefined N/A 30.09 1019 N/A 0.00 0.00
4:54 pm 16:54 undefined 50 10 9 -12.8 19 19 undefined N/A 30.07 1018 N/A 0.00 0.00
5:54 pm 17:54 undefined 50 10 8 -13.3 18 18 undefined N/A 30.03 1017 N/A 0.00 0.00
6:54 pm 18:54 undefined 50 10 8 -13.3 18 18 undefined N/A 30.05 1018 N/A 0.00 0.00
7:54 pm 19:54 undefined 49 9.4 8 -13.3 19 19 undefined N/A 30.07 1018 N/A 0.00 0.00
8:54 pm 20:54 undefined 47 8.3 11 -11.7 23 23 undefined N/A 30.08 1019 N/A 0.00 0.00
9:54 pm 21:54 undefined 45 7.2 10 -12.2 24 24 undefined N/A 30.10 1019 N/A 0.00 0.00
10:54 pm 22:54 undefined 44 6.7 9 -12.8 24 24 undefined N/A 30.12 1020 N/A 0.00 0.00
11:54 pm 23:54 undefined 43 6.1 10 -12.2 26 26 undefined N/A 30.14 1021 N/A 0.00 0.00

Powered by AerisWeather